Date String (YYYY-MM-DD hh:mm:ss) UTC,Instrument flags,Ambient pressure (hPa),Sample flow (lpm),Bypass flow (lpm),Sample temperature (°C),Ambient temperature (°C),ASC tube jacket temperature (°C),LED temperature (°C),Box temperature (°C),Sample RH (%),Span deviation,Mass concentration (μg/m³),Mass concentration (μg/m³),Mass concentration (μg/m³)
DateTimeUTC,F1_M11,P_M11,Q1_M11,Q2_M11,T1_M11,T2_M11,T3_M11,T4_M11,T5_M11,U1_M11,ZSPAN_M11,X0_M11,X2_M11,X1_M11
2022-11-02 23:00:00,,0817.0,4.98,0.00,29.7,26.3,00.0,38.3,31.4,07.0,0000.0,0011.40,0003.21,0001.69
2022-11-02 23:01:00,,0817.0,5.01,0.00,29.6,25.9,00.0,38.3,31.2,07.1,0000.0,0011.90,0003.23,0001.69
2022-11-02 23:02:00,,0817.0,5.00,0.00,29.6,26.2,00.0,38.2,31.2,07.1,0000.0,0011.98,0003.20,0001.69
2022-11-02 23:03:00,,0817.0,5.01,0.00,29.5,26.5,00.0,38.2,31.1,07.1,0000.0,0012.37,0003.20,0001.68
2022-11-02 23:04:00,,0817.0,4.99,0.00,29.4,26.9,00.0,38.2,31.2,07.2,0000.0,0013.34,0003.25,0001.69
2022-11-02 23:05:00,,0817.0,5.00,0.00,29.4,27.2,00.0,38.2,31.2,07.2,0000.0,0013.53,0003.27,0001.68
2022-11-02 23:06:00,,0817.0,5.00,0.00,29.4,27.5,00.0,38.2,31.3,07.2,0000.0,0012.74,0003.14,0001.66
2022-11-02 23:07:00,,0817.0,5.01,0.00,29.5,27.7,00.0,38.2,31.3,07.2,0000.0,0010.64,0002.72,0001.62
2022-11-02 23:08:00,,0817.0,5.00,0.00,29.5,27.9,00.0,38.2,31.4,07.2,0000.0,0011.17,0002.65,0001.62
2022-11-02 23:09:00,,0817.0,4.98,0.00,29.5,28.1,00.0,38.2,31.4,07.2,0000.0,0011.35,0002.66,0001.61
2022-11-02 23:10:00,,0817.0,5.00,0.00,29.5,28.2,00.0,38.2,31.5,07.1,0000.0,0012.07,0002.69,0001.59
2022-11-02 23:11:00,,0817.0,5.01,0.00,29.6,28.4,00.0,38.2,31.5,07.1,0000.0,0012.71,0002.74,0001.58
2022-11-02 23:12:00,,0817.0,5.01,0.00,29.6,28.5,00.0,38.2,31.6,07.1,0000.0,0012.08,0002.71,0001.57
2022-11-02 23:13:00,,0816.9,4.99,0.00,29.6,28.6,00.0,38.3,31.6,07.1,0000.0,0012.97,0002.69,0001.57
2022-11-02 23:14:00,,0816.9,4.99,0.00,29.7,28.7,00.0,38.3,31.7,07.0,0000.0,0013.86,0002.72,0001.59
2022-11-02 23:15:00,,0816.9,5.01,0.00,29.7,28.7,00.0,38.3,31.7,07.0,0000.0,0012.92,0002.70,0001.59
2022-11-02 23:16:00,,0817.0,5.01,0.00,29.8,28.8,00.0,38.3,31.7,07.0,0000.0,0012.84,0002.63,0001.59
2022-11-02 23:17:00,,0817.5,4.98,0.00,29.8,28.9,00.0,38.4,31.8,06.9,0000.0,0013.68,0002.71,0001.61
2022-11-02 23:18:00,,0817.2,5.00,0.00,29.8,28.2,00.0,38.4,31.7,07.0,0000.0,0014.79,0002.75,0001.64
2022-11-02 23:19:00,,0816.8,5.02,0.00,29.8,26.9,00.0,38.4,31.5,06.9,0000.0,0014.13,0002.85,0001.65
2022-11-02 23:20:00,,0816.9,4.98,0.00,29.7,26.7,00.0,38.3,31.4,06.9,0000.0,0013.96,0002.91,0001.65
2022-11-02 23:21:00,,0816.9,5.02,0.00,29.6,26.9,00.0,38.3,31.4,06.9,0000.0,0012.83,0002.85,0001.66
2022-11-02 23:22:00,,0816.9,4.99,0.00,29.6,27.2,00.0,38.3,31.4,07.0,0000.0,0011.72,0002.83,0001.66
2022-11-02 23:23:00,,0816.9,4.99,0.00,29.6,27.5,00.0,38.3,31.4,07.0,0000.0,0012.40,0002.92,0001.67
2022-11-02 23:24:00,,0816.9,5.02,0.00,29.6,27.7,00.0,38.3,31.4,07.1,0000.0,0012.91,0003.07,0001.69
2022-11-02 23:25:00,,0816.9,5.00,0.00,29.6,28.0,00.0,38.3,31.5,07.1,0000.0,0012.52,0003.06,0001.68
2022-11-02 23:26:00,,0816.9,5.01,0.00,29.6,28.1,00.0,38.3,31.5,07.0,0000.0,0013.26,0003.10,0001.69
2022-11-02 23:27:00,,0816.8,4.99,0.00,29.7,28.3,00.0,38.3,31.6,07.0,0000.0,0016.22,0003.22,0001.70
2022-11-02 23:28:00,,0816.9,4.99,0.00,29.7,28.4,00.0,38.3,31.6,07.1,0000.0,0017.06,0003.33,0001.70
2022-11-02 23:29:00,,0816.8,5.00,0.00,29.7,28.5,00.0,38.4,31.7,07.1,0000.0,0016.23,0003.40,0001.69
2022-11-02 23:30:00,,0816.9,5.00,0.00,29.7,28.6,00.0,38.4,31.7,07.1,0000.0,0016.35,0003.33,0001.68
2022-11-02 23:31:00,,0816.9,5.00,0.00,29.8,28.7,00.0,38.4,31.7,07.0,0000.0,0016.39,0003.28,0001.68
2022-11-02 23:32:00,,0816.9,5.01,0.00,29.8,28.8,00.0,38.4,31.8,07.1,0000.0,0017.14,0003.34,0001.69
2022-11-02 23:33:00,,0816.8,5.00,0.00,29.8,28.6,00.0,38.5,31.8,07.1,0000.0,0018.23,0003.41,0001.70
2022-11-02 23:34:00,,0816.9,4.99,0.00,29.8,27.2,00.0,38.4,31.6,07.0,0000.0,0018.77,0003.41,0001.71
2022-11-02 23:35:00,,0816.9,5.01,0.00,29.8,26.6,00.0,38.4,31.5,07.0,0000.0,0017.29,0003.35,0001.69
2022-11-02 23:36:00,,0816.9,5.00,0.00,29.7,26.7,00.0,38.4,31.4,07.0,0000.0,0016.56,0003.36,0001.69
2022-11-02 23:37:00,,0816.8,4.99,0.00,29.6,27.0,00.0,38.3,31.3,07.0,0000.0,0015.62,0003.31,0001.68
2022-11-02 23:38:00,,0816.8,5.01,0.00,29.6,27.3,00.0,38.3,31.3,07.0,0000.0,0013.19,0003.24,0001.68
2022-11-02 23:39:00,,0816.8,4.99,0.00,29.6,27.6,00.0,38.3,31.4,07.1,0000.0,0011.56,0003.07,0001.66
2022-11-02 23:40:00,,0816.9,5.01,0.00,29.6,27.8,00.0,38.3,31.4,07.1,0000.0,0011.01,0002.87,0001.64
2022-11-02 23:41:00,,0816.9,4.99,0.00,29.6,28.0,00.0,38.3,31.4,07.1,0000.0,0010.86,0002.87,0001.63
2022-11-02 23:42:00,,0816.9,4.99,0.00,29.6,28.1,00.0,38.3,31.5,07.0,0000.0,0010.89,0002.83,0001.62
2022-11-02 23:43:00,,0816.9,5.00,0.00,29.6,28.2,00.0,38.4,31.5,07.0,0000.0,0010.79,0002.79,0001.61
2022-11-02 23:44:00,,0816.8,5.00,0.00,29.7,28.4,00.0,38.4,31.5,07.0,0000.0,0010.23,0002.66,0001.60
2022-11-02 23:45:00,,0816.9,5.00,0.00,29.7,28.5,00.0,38.4,31.6,07.0,0000.0,0008.99,0002.58,0001.59
2022-11-02 23:46:00,,0816.9,5.00,0.00,29.7,28.6,00.0,38.4,31.6,07.0,0000.0,0008.96,0002.59,0001.58
2022-11-02 23:47:00,,0816.9,5.01,0.00,29.7,28.6,00.0,38.4,31.7,07.0,0000.0,0009.82,0002.54,0001.57
2022-11-02 23:48:00,,0816.8,5.00,0.00,29.8,28.7,00.0,38.4,31.7,07.0,0000.0,0010.18,0002.61,0001.56
2022-11-02 23:49:00,,0816.8,5.00,0.00,29.8,28.7,00.0,38.5,31.7,07.0,0000.0,0009.85,0002.62,0001.57
2022-11-02 23:50:00,,0816.8,4.99,0.00,29.8,28.8,00.0,38.5,31.7,07.1,0000.0,0010.02,0002.65,0001.60
2022-11-02 23:51:00,,0816.9,5.00,0.00,29.8,28.8,00.0,38.5,31.8,07.1,0000.0,0010.64,0002.68,0001.61
2022-11-02 23:52:00,,0816.9,5.00,0.00,29.9,28.9,00.0,38.5,31.8,07.1,0000.0,0010.67,0002.70,0001.62
2022-11-02 23:53:00,,0817.0,4.99,0.00,29.9,28.9,00.0,38.6,31.8,07.1,0000.0,0011.86,0002.77,0001.63
2022-11-02 23:54:00,,0816.9,5.00,0.00,29.9,28.9,00.0,38.6,31.8,07.1,0000.0,0012.45,0002.82,0001.64
2022-11-02 23:55:00,,0816.8,5.01,0.00,29.9,27.8,00.0,38.6,31.7,07.0,0000.0,0012.12,0002.85,0001.64
2022-11-02 23:56:00,,0816.8,4.98,0.00,29.8,26.6,00.0,38.5,31.5,07.0,0000.0,0012.22,0002.88,0001.65
2022-11-02 23:57:00,,0816.8,5.01,0.00,29.8,26.4,00.0,38.5,31.4,07.1,0000.0,0012.51,0002.89,0001.66
2022-11-02 23:58:00,,0816.9,4.99,0.00,29.7,26.7,00.0,38.4,31.3,07.2,0000.0,0011.95,0002.95,0001.66
2022-11-02 23:59:00,,0816.9,5.01,0.00,29.6,27.0,00.0,38.4,31.3,07.2,0000.0,0012.05,0002.92,0001.67
